When you browse on this site, cookies collect data to enhance your experience and personalize the content and advertising you see.
Visit our Privacy Policy to learn more. By continuing to use the site, you agree to this use of cookies and data.
  • In Czech Republic
  • List of Countries
  • For 7 days
  • Water Temperature
  • Satellite Maps
  • Weather Map
  • Weather Widgets
  • user-avatar
    Login

    Hourly Weather Gold Coast

    Today, 14 December, Friday

    Time Temperature Precipitation Wind Pressure Humidity
    00:00 +23°C° 0.8 mm 5 mps 751 mmHg 87%
    01:00 +22°C° 0.8 mm 4 mps 751 mmHg 92%
    02:00 +22°C° 0.1 mm 4 mps 750 mmHg 92%
    03:00 +23°C° 0.1 mm 5 mps 750 mmHg 93%
    04:00 +23°C° 0 mm 6 mps 750 mmHg 92%
    05:00 +23°C° 0.2 mm 5 mps 750 mmHg 91%
    06:00 +25°C° 0.2 mm 5 mps 750 mmHg 89%
    07:00 +25°C° 0.2 mm 4 mps 750 mmHg 88%
    08:00 +27°C° 0.3 mm 5 mps 750 mmHg 81%
    09:00 +28°C° 0.3 mm 5 mps 750 mmHg 75%
    10:00 +29°C° 0 mm 5 mps 750 mmHg 73%
    11:00 +30°C° 0.1 mm 5 mps 750 mmHg 65%
    12:00 +33°C° 0.1 mm 6 mps 750 mmHg 57%
    13:00 +35°C° 0.1 mm 6 mps 749 mmHg 50%
    14:00 +34°C° 0.1 mm 6 mps 749 mmHg 54%
    15:00 +33°C° 0.1 mm 6 mps 749 mmHg 58%
    16:00 +30°C° 0 mm 7 mps 749 mmHg 66%
    17:00 +29°C° 0.1 mm 7 mps 750 mmHg 71%
    18:00 +28°C° 0.1 mm 6 mps 750 mmHg 76%
    19:00 +27°C° 0.1 mm 6 mps 750 mmHg 81%
    20:00 +26°C° 0.5 mm 6 mps 751 mmHg 85%
    21:00 +26°C° 0.5 mm 6 mps 751 mmHg 88%
    22:00 +24°C° 0.5 mm 6 mps 751 mmHg 91%
    23:00 +24°C° 3.6 mm 6 mps 751 mmHg 92%

    Tomorrow, 15 December, Saturday

    Time Temperature Precipitation Wind Pressure Humidity
    00:00 +24°C° 3.6 mm 6 mps 751 mmHg 92%
    01:00 +25°C° 3.6 mm 5 mps 751 mmHg 93%
    02:00 +24°C° 1.3 mm 6 mps 751 mmHg 94%
    03:00 +24°C° 1.3 mm 6 mps 751 mmHg 94%
    04:00 +24°C° 1.3 mm 6 mps 751 mmHg 95%
    05:00 +24°C° 1.6 mm 6 mps 752 mmHg 94%
    06:00 +24°C° 1.6 mm 6 mps 752 mmHg 94%
    07:00 +26°C° 1.6 mm 6 mps 753 mmHg 93%
    08:00 +26°C° 0.7 mm 7 mps 753 mmHg 93%
    09:00 +24°C° 0.7 mm 7 mps 753 mmHg 93%
    10:00 +24°C° 0.7 mm 7 mps 753 mmHg 93%
    11:00 +26°C° 0.4 mm 7 mps 753 mmHg 92%
    12:00 +26°C° 0.4 mm 7 mps 752 mmHg 90%
    13:00 +27°C° 0.4 mm 7 mps 752 mmHg 89%
    14:00 +27°C° 0.2 mm 7 mps 752 mmHg 85%
    15:00 +28°C° 0.2 mm 7 mps 752 mmHg 81%
    16:00 +28°C° 0.2 mm 7 mps 752 mmHg 77%
    17:00 +27°C° 0.1 mm 6 mps 752 mmHg 81%
    18:00 +26°C° 0.1 mm 6 mps 753 mmHg 84%
    19:00 +24°C° 0.1 mm 6 mps 753 mmHg 88%
    20:00 +25°C° 0.1 mm 5 mps 754 mmHg 89%
    21:00 +25°C° 0.1 mm 5 mps 754 mmHg 90%
    22:00 +25°C° 0.1 mm 5 mps 755 mmHg 91%
    23:00 +23°C° 0.1 mm 5 mps 754 mmHg 92%

    Day after tomorrow, 16 December, Sunday

    Time Temperature Precipitation Wind Pressure Humidity
    00:00 +23°C° 0.1 mm 5 mps 754 mmHg 92%
    01:00 +23°C° 0.1 mm 5 mps 753 mmHg 93%
    02:00 +23°C° 0.1 mm 5 mps 753 mmHg 93%
    03:00 +23°C° 0.1 mm 4 mps 753 mmHg 94%
    04:00 +23°C° 0.1 mm 4 mps 753 mmHg 94%
    05:00 +23°C° 0.1 mm 5 mps 754 mmHg 93%
    06:00 +25°C° 0.1 mm 5 mps 754 mmHg 92%
    07:00 +25°C° 0.1 mm 5 mps 755 mmHg 90%
    08:00 +25°C° 0.3 mm 5 mps 755 mmHg 89%
    09:00 +26°C° 0.3 mm 5 mps 755 mmHg 88%
    10:00 +26°C° 0.3 mm 6 mps 755 mmHg 87%
    11:00 +26°C° 0.2 mm 6 mps 754 mmHg 88%
    12:00 +26°C° 0.2 mm 6 mps 754 mmHg 90%
    13:00 +24°C° 0.2 mm 6 mps 753 mmHg 91%
    14:00 +24°C° 0.9 mm 6 mps 753 mmHg 92%
    15:00 +24°C° 0.9 mm 6 mps 753 mmHg 93%
    16:00 +24°C° 0.9 mm 6 mps 753 mmHg 93%
    17:00 +24°C° 1.9 mm 6 mps 753 mmHg 94%
    18:00 +23°C° 1.9 mm 6 mps 753 mmHg 95%
    19:00 +23°C° 1.9 mm 6 mps 754 mmHg 96%
    20:00 +23°C° 1.1 mm 6 mps 754 mmHg 96%
    21:00 +23°C° 1.1 mm 6 mps 754 mmHg 96%
    22:00 +23°C° 1.1 mm 6 mps 755 mmHg 96%
    23:00 +23°C° 1.9 mm 6 mps 754 mmHg 96%

    17 December, Monday

    Time Temperature Precipitation Wind Pressure Humidity
    00:00 +23°C° 1.9 mm 6 mps 753 mmHg 96%
    01:00 +23°C° 1.9 mm 6 mps 753 mmHg 96%
    02:00 +23°C° 5.6 mm 6 mps 753 mmHg 96%
    03:00 +23°C° 5.6 mm 6 mps 753 mmHg 96%
    04:00 +23°C° 5.6 mm 6 mps 753 mmHg 96%
    05:00 +23°C° 7.5 mm 6 mps 753 mmHg 96%
    06:00 +23°C° 7.5 mm 7 mps 754 mmHg 95%
    07:00 +23°C° 7.5 mm 7 mps 754 mmHg 94%
    08:00 +24°C° 5 mm 7 mps 755 mmHg 93%
    09:00 +24°C° 5 mm 7 mps 755 mmHg 91%
    10:00 +24°C° 5 mm 7 mps 755 mmHg 89%
    11:00 +26°C° 0.7 mm 7 mps 755 mmHg 87%
    12:00 +26°C° 0.7 mm 7 mps 754 mmHg 85%
    13:00 +27°C° 0.7 mm 6 mps 754 mmHg 83%
    14:00 +27°C° 0.1 mm 6 mps 754 mmHg 82%
    15:00 +27°C° 0.1 mm 6 mps 754 mmHg 81%
    16:00 +26°C° 0.1 mm 5 mps 754 mmHg 80%
    17:00 +26°C° 0.1 mm 5 mps 755 mmHg 84%
    18:00 +25°C° 0.1 mm 5 mps 755 mmHg 87%
    19:00 +23°C° 0.1 mm 5 mps 756 mmHg 90%
    20:00 +23°C° 0 mm 4 mps 756 mmHg 92%
    21:00 +23°C° 0 mm 4 mps 757 mmHg 93%
    22:00 +22°C° 0 mm 3 mps 757 mmHg 94%
    23:00 +22°C° 0 mm 3 mps 756 mmHg 95%

    18 December, Tuesday

    Time Temperature Precipitation Wind Pressure Humidity
    00:00 +23°C° 0 mm 2 mps 756 mmHg 95%
    01:00 +23°C° 0 mm 2 mps 755 mmHg 96%
    02:00 +23°C° 0 mm 2 mps 755 mmHg 96%
    03:00 +21°C° 0 mm 2 mps 755 mmHg 96%
    04:00 +21°C° 0 mm 2 mps 755 mmHg 96%
    05:00 +23°C° 0 mm 2 mps 756 mmHg 92%
    06:00 +24°C° 0 mm 3 mps 756 mmHg 88%
    07:00 +26°C° 0 mm 3 mps 757 mmHg 84%
    08:00 +27°C° 0 mm 3 mps 757 mmHg 77%
    09:00 +28°C° 0 mm 3 mps 757 mmHg 69%
    10:00 +30°C° 0 mm 3 mps 757 mmHg 62%
    11:00 +30°C° 0 mm 3 mps 757 mmHg 60%
    12:00 +30°C° 0 mm 4 mps 756 mmHg 59%
    13:00 +32°C° 0 mm 4 mps 756 mmHg 58%
    14:00 +32°C° 0 mm 4 mps 756 mmHg 59%
    15:00 +30°C° 0 mm 4 mps 756 mmHg 60%
    16:00 +30°C° 0 mm 4 mps 755 mmHg 61%
    17:00 +29°C° 0 mm 4 mps 756 mmHg 69%
    18:00 +27°C° 0 mm 3 mps 756 mmHg 78%
    19:00 +25°C° 0 mm 3 mps 757 mmHg 86%
    20:00 +24°C° 0 mm 3 mps 757 mmHg 89%
    21:00 +24°C° 0 mm 3 mps 758 mmHg 92%
    22:00 +23°C° 0 mm 2 mps 758 mmHg 94%
    23:00 +23°C° 0 mm 2 mps 758 mmHg 95%

    19 December, Wednesday

    Time Temperature Precipitation Wind Pressure Humidity
    00:00 +23°C° 0 mm 2 mps 757 mmHg 95%
    01:00 +23°C° 0 mm 1 mps 757 mmHg 95%
    02:00 +23°C° 0 mm 1 mps 757 mmHg 95%
    03:00 +23°C° 0 mm 1 mps 757 mmHg 95%
    04:00 +23°C° 0 mm 1 mps 756 mmHg 96%
    05:00 +24°C° 0 mm 1 mps 757 mmHg 90%
    06:00 +25°C° 0 mm 2 mps 757 mmHg 84%
    07:00 +26°C° 0 mm 2 mps 758 mmHg 79%
    08:00 +28°C° 0 mm 2 mps 757 mmHg 70%
    09:00 +30°C° 0 mm 2 mps 757 mmHg 62%
    10:00 +33°C° 0 mm 3 mps 757 mmHg 53%
    11:00 +34°C° 0 mm 3 mps 756 mmHg 50%
    12:00 +35°C° 0 mm 4 mps 756 mmHg 47%
    13:00 +36°C° 0 mm 4 mps 755 mmHg 43%
    14:00 +35°C° 0 mm 4 mps 755 mmHg 47%
    15:00 +34°C° 0 mm 4 mps 755 mmHg 51%
    16:00 +33°C° 0 mm 5 mps 755 mmHg 55%
    17:00 +30°C° 0 mm 5 mps 755 mmHg 64%
    18:00 +28°C° 0 mm 4 mps 755 mmHg 73%
    19:00 +26°C° 0 mm 4 mps 756 mmHg 82%
    20:00 +25°C° 0 mm 4 mps 756 mmHg 85%
    21:00 +23°C° 0 mm 4 mps 756 mmHg 89%
    22:00 +23°C° 0 mm 4 mps 756 mmHg 92%
    23:00 +23°C° 0 mm 4 mps 756 mmHg 92%
    Show more